FW9243 Weather Reports


Display with metric or nautical units.
time (UTC)temp
F
wind
direction
speed
MPH
gust
MPH
rain 1hr
in
rain 24hr
in
rain mn
in
humidity
%
barometer
mb
20260904054401 61 223 1.0 1.0 0.00 0.00 0.00 94 1020.0
20260904054304 61 223 0.0 1.0 0.00 0.00 0.00 94 1019.3
20260904053902 61 206 0.0 1.0 0.00 0.00 0.00 93 1020.0
20260904053804 61 175 0.0 1.0 0.00 0.00 0.00 93 1019.2
20260904053402 61 197 1.0 2.0 0.00 0.00 0.00 93 1020.0
20260904053303 61 254 1.0 2.0 0.00 0.00 0.00 93 1019.3
20260904053044 60 205 1.0 1.0 0.00 0.00 0.00 100 1020.7
20260904052902 61 269 1.0 2.0 0.00 0.00 0.00 93 1019.9
20260904052804 61 236 1.0 2.0 0.00 0.00 0.00 93 1019.3
20260904052402 61 1 0.0 1.0 0.00 0.00 0.00 93 1020.0
20260904052306 61 32 0.0 1.0 0.00 0.00 0.00 93 1019.2
20260904051903 61 269 0.0 1.0 0.00 0.00 0.00 94 1020.0
20260904051803 61 244 0.0 1.0 0.00 0.00 0.00 94 1019.2
20260904051549 60 0 0.0 1.0 0.00 0.00 0.00 100 1020.6
20260904051401 61 45 1.0 1.0 0.00 0.00 0.00 94 1019.8
20260904051304 61 221 1.0 1.0 0.00 0.00 0.00 94 1019.1
20260904050902 61 213 1.0 1.0 0.00 0.00 0.00 94 1019.8
20260904050844 61 241 0.0 1.0 0.00 0.00 0.00 94 1019.8
20260904050044 60 221 0.0 1.0 0.00 0.00 0.00 100 1020.6
20260904045903 61 45 0.0 1.0 0.00 0.00 0.00 94 1019.8
20260904045404 61 45 0.0 1.0 0.00 0.00 0.00 94 1019.9
20260904045306 61 234 0.0 1.0 0.00 0.00 0.00 94 1019.2
20260904045123 61 269 0.0 1.0 0.00 0.00 0.00 94 1019.9
20260904044803 61 260 0.0 1.0 0.00 0.00 0.00 94 1019.2
20260904044627 60 269 0.0 1.0 0.00 0.00 0.00 93 1019.9
20260904044549 60 0 0.0 1.0 0.00 0.00 0.00 100 1020.7
20260904044303 60 179 0.0 1.0 0.00 0.00 0.00 93 1019.2
20260904043904 60 269 0.0 1.0 0.00 0.00 0.00 93 1019.9
20260904043803 60 42 0.0 1.0 0.00 0.00 0.00 93 1019.1
20260904043402 60 314 0.0 1.0 0.00 0.00 0.00 93 1019.9
20260904043304 60 86 0.0 1.0 0.00 0.00 0.00 93 1019.2
20260904043048 60 0 0.0 1.0 0.00 0.00 0.00 100 1020.7
20260904042903 60 178 0.0 1.0 0.00 0.00 0.00 93 1019.8
20260904042803 60 150 0.0 1.0 0.00 0.00 0.00 93 1019.3
20260904042401 60 135 0.0 1.0 0.00 0.00 0.00 93 1019.9
20260904041903 60 161 1.0 2.0 0.00 0.00 0.00 93 1020.0
20260904041804 60 161 1.0 2.0 0.00 0.00 0.00 93 1019.4
20260904041545 60 0 1.0 2.0 0.00 0.00 0.00 100 1020.8
20260904041401 60 178 0.0 2.0 0.00 0.00 0.00 93 1019.9
20260904041304 60 168 0.0 2.0 0.00 0.00 0.00 92 1019.3
20260904040901 60 178 0.0 1.0 0.00 0.00 0.00 92 1019.9
20260904040803 60 100 0.0 1.0 0.00 0.00 0.00 93 1019.3
20260904040628 61 63 0.0 1.0 0.00 0.00 0.00 92 1020.1
20260904040304 61 337 0.0 1.0 0.00 0.00 0.00 92 1019.4
20260904040042 60 0 0.0 1.0 0.00 0.00 0.00 100 1020.8
20260904035901 61 1 0.0 1.0 0.00 0.00 0.00 92 1020.1
20260904035408 61 45 0.0 1.0 0.00 0.00 0.00 92 1020.2
20260904034906 61 1 0.0 2.0 0.00 0.00 0.00 93 1020.2
20260904034803 61 199 0.0 1.0 0.00 0.00 0.00 93 1019.5
20260904034623 61 1 0.0 2.0 0.00 0.00 0.00 93 1020.2
20260904034559 60 0 0.0 1.0 0.00 0.00 0.00 100 1020.9
20260904034303 61 60 1.0 2.0 0.00 0.00 0.00 93 1019.4
20260904034128 61 45 0.0 1.0 0.00 0.00 0.00 92 1020.2
20260904033803 61 47 0.0 1.0 0.00 0.00 0.00 92 1019.5
20260904033405 61 56 0.0 1.0 0.00 0.00 0.00 92 1020.2
20260904033304 61 44 0.0 1.0 0.00 0.00 0.00 92 1019.5
20260904033047 60 0 0.0 1.0 0.00 0.00 0.00 100 1020.9
20260904032902 60 45 0.0 1.0 0.00 0.00 0.00 91 1020.1
20260904032804 61 50 0.0 1.0 0.00 0.00 0.00 91 1019.4
20260904032623 60 135 1.0 1.0 0.00 0.00 0.00 90 1020.1
20260904032305 61 46 0.0 1.0 0.00 0.00 0.00 90 1019.4
20260904031906 61 223 0.0 1.0 0.00 0.00 0.00 91 1020.2
20260904031804 61 275 0.0 1.0 0.00 0.00 0.00 91 1019.5
20260904031541 60 0 0.0 1.0 0.00 0.00 0.00 100 1021.0
20260904031402 61 269 0.0 1.0 0.00 0.00 0.00 90 1020.2
20260904031304 61 346 0.0 1.0 0.00 0.00 0.00 91 1019.6
20260904030902 61 45 0.0 1.0 0.00 0.00 0.00 90 1020.2
20260904030402 61 269 0.0 1.0 0.00 0.00 0.00 90 1020.2
20260904030303 61 282 0.0 1.0 0.00 0.00 0.00 90 1019.5
20260904030044 61 0 0.0 1.0 0.00 0.00 0.00 100 1021.0
20260904025902 61 314 0.0 1.0 0.00 0.00 0.00 90 1020.3
20260904025803 61 201 0.0 1.0 0.00 0.00 0.00 91 1019.6
20260904025403 61 314 0.0 1.0 0.00 0.00 0.00 91 1020.2
20260904025306 61 270 0.0 1.0 0.00 0.00 0.00 91 1019.6
20260904024902 62 269 0.0 1.0 0.00 0.00 0.00 91 1020.1
20260904024627 62 45 0.0 1.0 0.00 0.00 0.00 90 1020.3
20260904024543 61 0 0.0 1.0 0.00 0.00 0.00 100 1021.0
20260904024303 62 61 0.0 1.0 0.00 0.00 0.00 90 1019.5
20260904023839 62 223 0.0 1.0 0.00 0.00 0.00 90 1020.3
20260904023804 62 221 1.0 2.0 0.00 0.00 0.00 90 1019.5
20260904023337 62 269 0.0 1.0 0.00 0.00 0.00 90 1020.2
20260904023303 62 19 0.0 1.0 0.00 0.00 0.00 90 1019.5
20260904023046 62 0 0.0 1.0 0.00 0.00 0.00 100 1020.9
20260904022837 62 45 0.0 1.0 0.00 0.00 0.00 90 1020.2
20260904022804 62 48 0.0 1.0 0.00 0.00 0.00 91 1019.5
20260904022340 62 314 0.0 1.0 0.00 0.00 0.00 91 1020.3
20260904022305 62 52 0.0 1.0 0.00 0.00 0.00 91 1019.6
20260904021832 62 206 0.0 1.0 0.00 0.00 0.00 91 1020.4
20260904021803 62 258 0.0 1.0 0.00 0.00 0.00 91 1019.6
20260904021548 62 0 0.0 2.0 0.00 0.00 0.00 100 1021.0
20260904021331 63 45 1.0 1.0 0.00 0.00 0.00 91 1020.3
20260904020831 63 45 1.0 1.0 0.00 0.00 0.00 91 1020.2
20260904020803 63 7 0.0 1.0 0.00 0.00 0.00 91 1019.6
20260904020331 63 45 1.0 1.0 0.00 0.00 0.00 90 1020.2
20260904020304 63 87 0.0 1.0 0.00 0.00 0.00 90 1019.6
20260904020042 62 51 0.0 1.0 0.00 0.00 0.00 100 1021.1
20260904015831 63 45 0.0 1.0 0.00 0.00 0.00 90 1020.3
20260904015804 63 73 0.0 1.0 0.00 0.00 0.00 90 1019.5
20260904015556 63 269 0.0 1.0 0.00 0.00 0.00 90 1020.4
20260904015306 63 8 0.0 1.0 0.00 0.00 0.00 90 1019.6
20260904014832 63 1 0.0 1.0 0.00 0.00 0.00 90 1020.4
20260904014803 63 75 0.0 1.0 0.00 0.00 0.00 90 1019.7
20260904014555 63 45 1.0 1.0 0.00 0.00 0.00 90 1020.6
20260904014548 63 0 0.0 1.0 0.00 0.00 0.00 100 1021.3
20260904014319 64 241 0.0 1.0 0.00 0.00 0.00 90 1020.5
20260904014303 63 111 1.0 1.0 0.00 0.00 0.00 90 1019.8
20260904013804 64 290 0.0 1.0 0.00 0.00 0.00 90 1019.9
20260904013328 64 1 0.0 1.0 0.00 0.00 0.00 90 1020.7
20260904013304 64 37 0.0 1.0 0.00 0.00 0.00 90 1020.0
20260904013041 63 0 0.0 1.0 0.00 0.00 0.00 100 1021.5
20260904012830 64 241 0.0 1.0 0.00 0.00 0.00 90 1020.8
20260904012804 64 251 0.0 1.0 0.00 0.00 0.00 90 1020.1
20260904012330 64 269 0.0 1.0 0.00 0.00 0.00 90 1020.8
20260904012102 64 45 0.0 1.0 0.00 0.00 0.00 89 1020.9
20260904011804 64 40 0.0 1.0 0.00 0.00 0.00 89 1020.2
20260904011553 64 269 0.0 1.0 0.00 0.00 0.00 89 1020.8
20260904011544 64 0 0.0 1.0 0.00 0.00 0.00 100 1021.6
20260904010825 64 45 0.0 1.0 0.00 0.00 0.00 89 1020.8
20260904010323 64 223 0.0 1.0 0.00 0.00 0.00 89 1020.9
20260904010053 64 0 0.0 1.0 0.00 0.00 0.00 100 1021.6
20260904005822 65 1 0.0 1.0 0.00 0.00 0.00 90 1020.8
20260904005803 64 42 0.0 1.0 0.00 0.00 0.00 90 1020.2
20260904005324 65 45 0.0 1.0 0.00 0.00 0.00 89 1020.9
20260904005306 64 178 0.0 1.0 0.00 0.00 0.00 89 1020.2
20260904005043 65 178 0.0 1.0 0.00 0.00 0.00 89 1020.9
20260904004803 65 174 0.0 1.0 0.00 0.00 0.00 89 1020.2
20260904004557 64 0 0.0 1.0 0.00 0.00 0.00 100 1021.7
20260904004321 65 178 0.0 1.0 0.00 0.00 0.00 88 1020.9
20260904004304 65 194 0.0 1.0 0.00 0.00 0.00 88 1020.3
20260904003820 65 178 0.0 1.0 0.00 0.00 0.00 88 1020.9
20260904003803 65 139 0.0 1.0 0.00 0.00 0.00 88 1020.2
20260904003322 65 178 0.0 1.0 0.00 0.00 0.00 88 1020.9
20260904003304 65 172 0.0 1.0 0.00 0.00 0.00 88 1020.2
20260904003042 65 0 0.0 1.0 0.00 0.00 0.00 100 1021.6
20260904002820 65 178 0.0 1.0 0.00 0.00 0.00 87 1020.9
20260904002803 65 161 0.0 1.0 0.00 0.00 0.00 87 1020.3
20260904002322 65 45 0.0 1.0 0.00 0.00 0.00 87 1020.8
20260904001819 65 269 0.0 1.0 0.00 0.00 0.00 87 1020.8
20260904001804 65 63 0.0 1.0 0.00 0.00 0.00 87 1020.3
20260904001546 65 0 0.0 1.0 0.00 0.00 0.00 100 1021.6
20260904001323 66 269 0.0 1.0 0.00 0.00 0.00 87 1020.8
20260904001303 66 232 1.0 1.0 0.00 0.00 0.00 87 1020.2
20260904000819 66 269 0.0 1.0 0.00 0.00 0.00 87 1020.8
20260904000803 66 269 0.0 1.0 0.00 0.00 0.00 87 1020.2
20260904000325 66 223 0.0 2.0 0.00 0.00 0.00 87 1020.8
20260904000304 66 192 1.0 1.0 0.00 0.00 0.00 87 1020.2
20260904000113 66 93 0.0 1.0 0.00 0.00 0.00 100 1021.6
20260904000040 66 213 1.0 2.0 0.00 0.00 0.00 87 1020.8
20260903235804 66 217 1.0 2.0 0.00 0.00 0.00 87 1020.3
20260903235329 66 223 1.0 1.0 0.00 0.00 0.00 86 1020.9
20260903234820 66 197 0.0 1.0 0.00 0.00 0.00 86 1020.9
20260903234804 66 221 0.0 1.0 0.00 0.00 0.00 86 1020.2
20260903234546 66 0 0.0 1.0 0.00 0.00 0.00 100 1021.6
20260903234329 67 314 0.0 1.0 0.00 0.00 0.00 86 1020.8
20260903234304 66 233 0.0 1.0 0.00 0.00 0.00 85 1020.2
20260903233819 67 178 0.0 1.0 0.00 0.00 0.00 85 1020.8
20260903233327 67 1 0.0 2.0 0.00 0.00 0.00 85 1020.9
20260903233304 67 233 0.0 1.0 0.00 0.00 0.00 85 1020.2
20260903233044 66 265 0.0 1.0 0.00 0.00 0.00 100 1021.6
20260903232821 67 45 1.0 2.0 0.00 0.00 0.00 85 1020.9
20260903232803 67 39 1.0 2.0 0.00 0.00 0.00 85 1020.2
20260903232612 67 223 0.0 1.0 0.00 0.00 0.00 84 1020.8
20260903231820 67 178 0.0 1.0 0.00 0.00 0.00 84 1020.8
20260903231804 67 89 0.0 1.0 0.00 0.00 0.00 84 1020.1
20260903231604 68 45 0.0 1.0 0.00 0.00 0.00 84 1020.7
20260903231548 61 51 0.0 1.0 0.00 0.00 0.00 100 1021.5
20260903231304 68 336 0.0 1.0 0.00 0.00 0.00 84 1020.1
20260903230818 68 45 1.0 1.0 0.00 0.00 0.00 83 1020.7
20260903230804 68 236 0.0 1.0 0.00 0.00 0.00 83 1020.1
20260903230321 68 197 0.0 1.0 0.00 0.00 0.00 83 1020.8
20260903230304 68 245 0.0 1.0 0.00 0.00 0.00 83 1020.1
20260903230048 61 0 0.0 1.0 0.00 0.00 0.00 100 1021.5
20260903225817 68 206 0.0 1.0 0.00 0.00 0.00 83 1020.8
20260903225803 68 15 0.0 1.0 0.00 0.00 0.00 83 1020.1
20260903225320 69 223 0.0 1.0 0.00 0.00 0.00 83 1020.8
20260903225306 69 12 0.0 1.0 0.00 0.00 0.00 83 1020.1
20260903225041 69 89 0.0 1.0 0.00 0.00 0.00 83 1020.8
20260903224803 69 65 0.0 1.0 0.00 0.00 0.00 83 1020.1
20260903224551 69 45 0.0 1.0 0.00 0.00 0.00 84 1020.9
20260903224543 61 0 0.0 1.0 0.00 0.00 0.00 100 1021.5
20260903224304 69 134 0.0 1.0 0.00 0.00 0.00 84 1020.2
20260903223817 69 135 0.0 1.0 0.00 0.00 0.00 83 1020.9
20260903223321 69 223 0.0 1.0 0.00 0.00 0.00 82 1020.9
20260903223304 69 19 0.0 1.0 0.00 0.00 0.00 82 1020.2
20260903223257 70 45 0.0 1.0 0.00 0.00 0.00 82 1020.8
20260903223046 61 0 0.0 1.0 0.00 0.00 0.00 100 1021.6
20260903222803 70 189 0.0 1.0 0.00 0.00 0.00 82 1020.2
20260903222543 70 206 0.0 1.0 0.00 0.00 0.00 81 1020.9
20260903222305 70 235 0.0 1.0 0.00 0.00 0.00 81 1020.2
20260903221817 70 234 1.0 1.0 0.00 0.00 0.00 81 1020.8
20260903221803 70 228 1.0 1.0 0.00 0.00 0.00 81 1020.2
20260903221544 61 0 0.0 1.0 0.00 0.00 0.00 100 1021.5
20260903221320 70 45 0.0 1.0 0.00 0.00 0.00 80 1020.8
20260903221303 70 22 0.0 1.0 0.00 0.00 0.00 80 1020.1
20260903220818 71 314 0.0 1.0 0.00 0.00 0.00 80 1020.8
20260903220803 71 44 0.0 1.0 0.00 0.00 0.00 80 1020.1
20260903220340 71 45 0.0 2.0 0.00 0.00 0.00 80 1020.7
20260903220054 61 0 0.0 1.0 0.00 0.00 0.00 99 1021.5
20260903215821 71 56 0.0 2.0 0.00 0.00 0.00 80 1020.8
20260903215804 71 54 1.0 2.0 0.00 0.00 0.00 79 1020.1
20260903215549 71 45 0.0 1.0 0.00 0.00 0.00 78 1020.8
20260903215326 71 45 0.0 1.0 0.00 0.00 0.00 78 1020.8
20260903215306 71 55 0.0 1.0 0.00 0.00 0.00 78 1020.1
20260903214818 71 269 0.0 1.0 0.00 0.00 0.00 77 1020.8
20260903214549 61 0 0.0 1.0 0.00 0.00 0.00 97 1021.5
20260903214324 72 269 0.0 1.0 0.00 0.00 0.00 77 1020.8
20260903214304 72 340 0.0 1.0 0.00 0.00 0.00 77 1020.1
20260903213817 72 223 0.0 1.0 0.00 0.00 0.00 77 1020.9
20260903213803 72 353 0.0 1.0 0.00 0.00 0.00 77 1020.2
20260903213320 72 45 0.0 1.0 0.00 0.00 0.00 76 1020.9
20260903213304 72 174 0.0 1.0 0.00 0.00 0.00 76 1020.2
20260903213046 61 0 0.0 1.0 0.00 0.00 0.00 95 1021.5
20260903212817 72 269 0.0 1.0 0.00 0.00 0.00 76 1020.9
20260903212804 72 29 0.0 1.0 0.00 0.00 0.00 76 1020.1
20260903212327 72 45 0.0 1.0 0.00 0.00 0.00 76 1020.8
20260903212306 72 264 0.0 1.0 0.00 0.00 0.00 76 1020.1
20260903211816 73 223 0.0 1.0 0.00 0.00 0.00 76 1020.7
20260903211804 72 115 0.0 1.0 0.00 0.00 0.00 76 1020.1
20260903211612 61 0 0.0 1.0 0.00 0.00 0.00 95 1021.5
20260903211320 73 269 0.0 1.0 0.00 0.00 0.00 75 1020.8
20260903211304 73 99 0.0 1.0 0.00 0.00 0.00 75 1020.1
20260903210816 73 314 0.0 1.0 0.00 0.00 0.00 75 1020.8
20260903210803 73 56 0.0 1.0 0.00 0.00 0.00 75 1020.1
20260903210553 73 178 0.0 1.0 0.00 0.00 0.00 75 1020.8
20260903210304 73 173 0.0 1.0 0.00 0.00 0.00 75 1020.1
20260903210045 73 45 1.0 2.0 0.00 0.00 0.00 74 1020.8
20260903210043 61 0 0.0 1.0 0.00 0.00 0.00 94 1021.4
20260903205803 73 169 1.0 2.0 0.00 0.00 0.00 74 1020.0
20260903205321 73 178 0.0 2.0 0.00 0.00 0.00 74 1020.8
20260903205306 73 157 1.0 2.0 0.00 0.00 0.00 74 1020.0
20260903204814 74 165 1.0 1.0 0.00 0.00 0.00 73 1020.7
20260903204804 74 172 0.0 1.0 0.00 0.00 0.00 73 1020.0
20260903204550 61 0 0.0 1.0 0.00 0.00 0.00 92 1021.3
20260903204317 74 1 0.0 1.0 0.00 0.00 0.00 72 1020.7
20260903204303 74 134 0.0 2.0 0.00 0.00 0.00 72 1019.9
20260903203816 74 1 1.0 1.0 0.00 0.00 0.00 72 1020.6
20260903203804 74 79 1.0 1.0 0.00 0.00 0.00 72 1020.0
20260903203537 74 178 0.0 1.0 0.00 0.00 0.00 71 1020.7
20260903203304 74 87 0.0 1.0 0.00 0.00 0.00 71 1020.0
20260903203045 61 0 0.0 1.0 0.00 0.00 0.00 90 1021.4
20260903202815 75 63 0.0 1.0 0.00 0.00 0.00 70 1020.7
20260903202804 75 56 0.0 1.0 0.00 0.00 0.00 70 1019.9
20260903202318 75 45 0.0 2.0 0.00 0.00 0.00 69 1020.7
20260903202306 75 193 0.0 1.0 0.00 0.00 0.00 69 1019.9
20260903201814 75 63 1.0 2.0 0.00 0.00 0.00 69 1020.6
20260903201804 75 41 1.0 2.0 0.00 0.00 0.00 69 1019.7
20260903201546 61 64 0.0 1.0 0.00 0.00 0.00 88 1021.2
20260903201317 76 45 1.0 1.0 0.00 0.00 0.00 68 1020.5
20260903200815 76 45 0.0 1.0 0.00 0.00 0.00 67 1020.5
20260903200804 76 113 0.0 1.0 0.00 0.00 0.00 67 1019.8
20260903200317 76 223 0.0 1.0 0.00 0.00 0.00 67 1020.5
20260903200304 76 343 0.0 1.0 0.00 0.00 0.00 67 1019.7
20260903200043 61 0 0.0 1.0 0.00 0.00 0.00 86 1021.1
20260903195814 76 269 0.0 1.0 0.00 0.00 0.00 67 1020.3
20260903195317 76 178 0.0 1.0 0.00 0.00 0.00 66 1020.2
20260903195306 77 357 0.0 1.0 0.00 0.00 0.00 66 1019.5
20260903194813 77 269 1.0 2.0 0.00 0.00 0.00 66 1020.1
20260903194804 77 37 1.0 1.0 0.00 0.00 0.00 66 1019.5
20260903194546 61 9 0.0 1.0 0.00 0.00 0.00 85 1020.8
20260903194317 77 28 1.0 2.0 0.00 0.00 0.00 64 1020.2
20260903194304 77 47 1.0 2.0 0.00 0.00 0.00 64 1019.5
20260903193814 78 28 0.0 2.0 0.00 0.00 0.00 64 1020.1
20260903193804 78 1 0.0 2.0 0.00 0.00 0.00 64 1019.4
20260903193316 78 45 1.0 2.0 0.00 0.00 0.00 63 1020.0
20260903193303 78 38 1.0 2.0 0.00 0.00 0.00 63 1019.4
20260903193047 61 0 0.0 2.0 0.00 0.00 0.00 83 1020.8
20260903192813 79 45 0.0 3.0 0.00 0.00 0.00 63 1020.0
20260903192318 79 1 1.0 3.0 0.00 0.00 0.00 62 1020.0
20260903192306 79 329 1.0 3.0 0.00 0.00 0.00 62 1019.3
20260903191813 80 300 1.0 2.0 0.00 0.00 0.00 62 1020.0
20260903191805 80 313 1.0 2.0 0.00 0.00 0.00 62 1019.3
20260903191543 61 34 0.0 2.0 0.00 0.00 0.00 80 1020.7
20260903191539 81 283 1.0 2.0 0.00 0.00 0.00 61 1019.8
20260903191304 81 343 1.0 2.0 0.00 0.00 0.00 60 1019.2
20260903190815 81 269 1.0 2.0 0.00 0.00 0.00 60 1019.8
20260903190804 81 332 1.0 2.0 0.00 0.00 0.00 60 1019.2
20260903190316 82 223 0.0 1.0 0.00 0.00 0.00 59 1019.8
20260903190304 82 236 0.0 1.0 0.00 0.00 0.00 60 1019.2
20260903190044 61 0 0.0 1.0 0.00 0.00 0.00 79 1020.6
20260903185813 82 1 0.0 1.0 0.00 0.00 0.00 59 1019.9
20260903185804 82 320 0.0 1.0 0.00 0.00 0.00 59 1019.2
20260903185316 82 223 0.0 1.0 0.00 0.00 0.00 60 1019.8
20260903185306 82 228 0.0 1.0 0.00 0.00 0.00 60 1019.3
20260903185255 83 269 0.0 2.0 0.00 0.00 0.00 59 1019.9
20260903184557 61 0 0.0 2.0 0.00 0.00 0.00 79 1020.6
20260903184317 83 45 0.0 2.0 0.00 0.00 0.00 59 1019.9
20260903184304 83 248 1.0 2.0 0.00 0.00 0.00 58 1019.3
20260903183813 83 269 0.0 2.0 0.00 0.00 0.00 58 1019.9
20260903183804 83 348 1.0 2.0 0.00 0.00 0.00 58 1019.3
20260903183315 84 286 1.0 2.0 0.00 0.00 0.00 58 1019.9
20260903183043 61 51 0.0 2.0 0.00 0.00 0.00 77 1020.6
20260903182812 85 314 1.0 2.0 0.00 0.00 0.00 57 1019.9
20260903182804 85 305 1.0 2.0 0.00 0.00 0.00 57 1019.3
20260903182319 85 269 1.0 2.0 0.00 0.00 0.00 56 1019.8
20260903182306 85 315 1.0 2.0 0.00 0.00 0.00 56 1019.2
20260903181813 86 45 0.0 2.0 0.00 0.00 0.00 55 1019.8
20260903181804 86 294 0.0 2.0 0.00 0.00 0.00 55 1019.2
20260903181549 61 9 1.0 2.0 0.00 0.00 0.00 74 1020.6
20260903181317 86 1 1.0 2.0 0.00 0.00 0.00 54 1019.9
20260903181304 86 319 1.0 2.0 0.00 0.00 0.00 55 1019.2
20260903180812 87 344 1.0 2.0 0.00 0.00 0.00 54 1019.9
20260903180804 87 305 1.0 2.0 0.00 0.00 0.00 54 1019.3
20260903180549 87 296 1.0 2.0 0.00 0.00 0.00 54 1019.8
20260903180327 87 296 1.0 2.0 0.00 0.00 0.00 54 1019.8
20260903180303 87 302 1.0 3.0 0.00 0.00 0.00 54 1019.3
20260903180049 61 292 1.0 2.0 0.00 0.00 0.00 73 1020.6
20260903175811 87 303 1.0 2.0 0.00 0.00 0.00 53 1019.8
20260903175803 87 232 1.0 2.0 0.00 0.00 0.00 53 1019.3
20260903175315 87 178 0.0 4.0 0.00 0.00 0.00 53 1019.8
20260903175306 88 210 1.0 3.0 0.00 0.00 0.00 53 1019.2
20260903175036 88 327 2.0 4.0 0.00 0.00 0.00 51 1019.8
20260903174804 88 275 2.0 3.0 0.00 0.00 0.00 51 1019.2
20260903174609 61 317 1.0 3.0 0.00 0.00 0.00 71 1020.6
20260903174317 88 45 1.0 4.0 0.00 0.00 0.00 51 1019.8
20260903174303 88 300 1.0 3.0 0.00 0.00 0.00 51 1019.2
20260903174041 88 341 2.0 4.0 0.00 0.00 0.00 50 1019.8
20260903173804 88 312 1.0 3.0 0.00 0.00 0.00 50 1019.2
20260903173317 88 306 1.0 3.0 0.00 0.00 0.00 50 1019.9
20260903173304 88 275 1.0 3.0 0.00 0.00 0.00 50 1019.3
20260903173052 61 309 1.0 3.0 0.00 0.00 0.00 69 1020.5
20260903172810 89 327 2.0 3.0 0.00 0.00 0.00 50 1019.8
20260903172804 89 331 2.0 3.0 0.00 0.00 0.00 50 1019.2
20260903172313 89 324 2.0 4.0 0.00 0.00 0.00 50 1019.8
20260903172306 89 310 1.0 3.0 0.00 0.00 0.00 50 1019.3
20260903171810 89 324 2.0 4.0 0.00 0.00 0.00 48 1019.9
20260903171804 89 324 2.0 3.0 0.00 0.00 0.00 48 1019.2
20260903171548 61 282 1.0 3.0 0.00 0.00 0.00 67 1020.6
20260903171313 90 331 2.0 3.0 0.00 0.00 0.00 48 1019.8
20260903170811 90 319 1.0 3.0 0.00 0.00 0.00 46 1019.8
20260903170803 90 284 2.0 3.0 0.00 0.00 0.00 46 1019.3
20260903170315 90 314 0.0 3.0 0.00 0.00 0.00 46 1019.8
20260903170304 90 214 1.0 3.0 0.00 0.00 0.00 46 1019.2
20260903170105 61 321 1.0 2.0 0.00 0.00 0.00 65 1020.6
20260903165810 90 293 2.0 3.0 0.00 0.00 0.00 46 1019.8
20260903165803 90 336 1.0 3.0 0.00 0.00 0.00 47 1019.2
20260903165314 90 269 1.0 3.0 0.00 0.00 0.00 47 1019.8
20260903165305 90 327 1.0 3.0 0.00 0.00 0.00 46 1019.2
20260903164810 90 290 1.0 3.0 0.00 0.00 0.00 48 1019.7
20260903164804 90 219 1.0 3.0 0.00 0.00 0.00 48 1019.2
20260903164554 61 265 1.0 2.0 0.00 0.00 0.00 47 1020.5
20260903164313 90 223 1.0 3.0 0.00 0.00 0.00 49 1019.8
20260903164303 90 274 1.0 2.0 0.00 0.00 0.00 49 1019.1
20260903163810 90 269 1.0 4.0 0.00 0.00 0.00 50 1019.7
20260903163804 90 273 1.0 3.0 0.00 0.00 0.00 50 1019.2
20260903163313 90 321 2.0 4.0 0.00 0.00 0.00 49 1019.8
20260903163050 61 346 0.0 2.0 0.00 0.00 0.00 68 1020.5
20260903162810 90 269 1.0 3.0 0.00 0.00 0.00 49 1019.9
20260903162804 90 269 1.0 3.0 0.00 0.00 0.00 49 1019.2
20260903162311 90 223 1.0 4.0 0.00 0.00 0.00 49 1019.7
20260903162306 90 246 1.0 3.0 0.00 0.00 0.00 49 1019.3
20260903162027 89 45 1.0 4.0 0.00 0.00 0.00 49 1019.8
20260903161803 89 268 1.0 3.0 0.00 0.00 0.00 49 1019.4
20260903161547 61 314 2.0 4.0 0.00 0.00 0.00 47 1020.7
20260903161317 89 353 2.0 4.0 0.00 0.00 0.00 50 1019.9
20260903161303 89 346 1.0 3.0 0.00 0.00 0.00 48 1019.4
20260903161255 89 223 2.0 4.0 0.00 0.00 0.00 49 1020.0
20260903160803 89 292 2.0 3.0 0.00 0.00 0.00 49 1019.4
20260903160314 89 331 3.0 4.0 0.00 0.00 0.00 52 1019.9
20260903160303 89 325 2.0 3.0 0.00 0.00 0.00 50 1019.4
20260903160047 61 0 1.0 3.0 0.00 0.00 0.00 51 1020.7
20260903155811 89 321 2.0 4.0 0.00 0.00 0.00 51 1019.9
20260903155803 89 324 2.0 6.0 0.00 0.00 0.00 51 1019.4
20260903155311 89 314 2.0 4.0 0.00 0.00 0.00 52 1020.0
20260903155306 89 269 1.0 5.0 0.00 0.00 0.00 52 1019.4
20260903154808 89 314 2.0 4.0 0.00 0.00 0.00 52 1020.0
20260903154556 61 93 1.0 3.0 0.00 0.00 0.00 72 1020.7
20260903154548 89 351 2.0 5.0 0.00 0.00 0.00 54 1020.0
20260903154304 89 320 2.0 3.0 0.00 0.00 0.00 53 1019.5
20260903154030 89 234 2.0 5.0 0.00 0.00 0.00 54 1020.0
20260903153535 89 314 2.0 5.0 0.00 0.00 0.00 54 1020.0
20260903153303 89 274 3.0 6.0 0.00 0.00 0.00 54 1019.5
20260903153046 61 212 3.0 4.0 0.00 0.00 0.00 100 1020.9
20260903152809 89 89 2.0 4.0 0.00 0.00 0.00 54 1020.1
20260903152804 89 264 2.0 3.0 0.00 0.00 0.00 54 1019.5
20260903152312 89 324 2.0 3.0 0.00 0.00 0.00 54 1020.1
20260903152306 89 314 2.0 3.0 0.00 0.00 0.00 55 1019.5
20260903151809 89 279 2.0 5.0 0.00 0.00 0.00 55 1020.2
20260903151754 89 337 2.0 5.0 0.00 0.00 0.00 55 1020.2
20260903151551 61 221 1.0 3.0 0.00 0.00 0.00 100 1021.0
20260903151303 89 305 2.0 6.0 0.00 0.00 0.00 55 1019.7
20260903150808 89 331 2.0 4.0 0.00 0.00 0.00 55 1020.3
20260903150804 89 298 2.0 3.0 0.00 0.00 0.00 55 1019.7
20260903150312 89 303 2.0 5.0 0.00 0.00 0.00 55 1020.4
20260903150304 88 301 2.0 3.0 0.00 0.00 0.00 56 1019.8
20260903150044 61 51 2.0 4.0 0.00 0.00 0.00 100 1021.3
20260903145808 88 254 3.0 5.0 0.00 0.00 0.00 55 1020.4
20260903145804 89 321 3.0 6.0 0.00 0.00 0.00 55 1019.9
20260903145313 89 330 3.0 5.0 0.00 0.00 0.00 56 1020.5
20260903145306 89 319 2.0 3.0 0.00 0.00 0.00 56 1019.9
20260903144808 89 241 2.0 5.0 0.00 0.00 0.00 55 1020.5
20260903144804 89 267 2.0 5.0 0.00 0.00 0.00 55 1019.9
20260903144547 61 344 1.0 3.0 0.00 0.00 0.00 100 1021.3
20260903144311 88 1 2.0 5.0 0.00 0.00 0.00 57 1020.5
20260903144304 88 261 2.0 5.0 0.00 0.00 0.00 57 1020.0
20260903143808 88 314 2.0 5.0 0.00 0.00 0.00 56 1020.6
20260903143804 88 309 2.0 5.0 0.00 0.00 0.00 57 1020.0
20260903143311 88 16 2.0 4.0 0.00 0.00 0.00 55 1020.6
20260903143304 88 330 2.0 5.0 0.00 0.00 0.00 55 1020.1
20260903143048 61 295 1.0 4.0 0.00 0.00 0.00 100 1021.4
20260903142808 88 316 2.0 4.0 0.00 0.00 0.00 56 1020.6
20260903142803 88 286 2.0 5.0 0.00 0.00 0.00 56 1020.1
20260903142310 88 283 2.0 5.0 0.00 0.00 0.00 56 1020.6
20260903142306 88 308 2.0 3.0 0.00 0.00 0.00 56 1020.0
20260903141807 88 296 3.0 5.0 0.00 0.00 0.00 55 1020.7
20260903141804 88 310 3.0 5.0 0.00 0.00 0.00 55 1020.1
20260903141543 61 316 2.0 4.0 0.00 0.00 0.00 100 1021.5
20260903141530 88 314 2.0 4.0 0.00 0.00 0.00 56 1020.7
20260903141248 87 269 2.0 4.0 0.00 0.00 0.00 57 1020.7
20260903140804 87 286 2.0 3.0 0.00 0.00 0.00 57 1020.1
20260903140310 87 300 2.0 4.0 0.00 0.00 0.00 57 1020.7
20260903140304 87 319 2.0 5.0 0.00 0.00 0.00 56 1020.1
20260903140044 61 311 2.0 4.0 0.00 0.00 0.00 100 1021.5
20260903135806 87 306 1.0 4.0 0.00 0.00 0.00 57 1020.7
20260903135540 87 300 2.0 4.0 0.00 0.00 0.00 57 1020.8
20260903135306 87 306 2.0 3.0 0.00 0.00 0.00 57 1020.1
20260903134805 87 1 2.0 5.0 0.00 0.00 0.00 56 1020.8
20260903134803 87 291 2.0 3.0 0.00 0.00 0.00 56 1020.1
20260903134542 61 329 1.0 3.0 0.00 0.00 0.00 100 1021.5
20260903134310 87 135 1.0 5.0 0.00 0.00 0.00 58 1020.8
20260903134304 87 293 2.0 5.0 0.00 0.00 0.00 58 1020.1
20260903133805 87 331 2.0 5.0 0.00 0.00 0.00 57 1020.8
20260903133308 87 319 2.0 5.0 0.00 0.00 0.00 57 1020.8
20260903133304 87 289 3.0 6.0 0.00 0.00 0.00 57 1020.2
20260903133052 61 239 1.0 4.0 0.00 0.00 0.00 100 1021.6
20260903132806 87 299 2.0 3.0 0.00 0.00 0.00 58 1020.9
20260903132804 87 304 1.0 3.0 0.00 0.00 0.00 58 1020.3
20260903132309 87 303 2.0 4.0 0.00 0.00 0.00 58 1020.8
20260903131805 86 234 1.0 4.0 0.00 0.00 0.00 59 1020.9
20260903131553 61 287 1.0 3.0 0.00 0.00 0.00 100 1021.6
20260903131308 86 231 2.0 4.0 0.00 0.00 0.00 57 1020.9
20260903131304 86 259 1.0 3.0 0.00 0.00 0.00 59 1020.3
20260903131022 86 314 2.0 3.0 0.00 0.00 0.00 59 1020.9
20260903130804 86 318 2.0 3.0 0.00 0.00 0.00 59 1020.3
20260903130528 86 306 2.0 3.0 0.00 0.00 0.00 60 1020.8
20260903130044 61 291 1.0 2.0 0.00 0.00 0.00 100 1021.6
20260903125805 85 223 2.0 3.0 0.00 0.00 0.00 60 1020.9
20260903125803 85 247 2.0 3.0 0.00 0.00 0.00 59 1020.3
20260903125308 85 45 2.0 5.0 0.00 0.00 0.00 59 1021.0
20260903125305 85 327 2.0 3.0 0.00 0.00 0.00 58 1020.3
20260903124805 85 1 2.0 5.0 0.00 0.00 0.00 58 1021.0
20260903124546 61 235 2.0 3.0 0.00 0.00 0.00 100 1021.8
20260903124309 85 290 2.0 4.0 0.00 0.00 0.00 58 1021.1
20260903124304 85 268 1.0 3.0 0.00 0.00 0.00 59 1020.4
20260903123804 84 267 1.0 3.0 0.00 0.00 0.00 58 1020.5
20260903123308 84 269 2.0 3.0 0.00 0.00 0.00 62 1021.0
20260903123303 84 285 1.0 3.0 0.00 0.00 0.00 62 1020.5
20260903123044 61 338 1.0 3.0 0.00 0.00 0.00 100 1021.8
20260903122804 83 291 1.0 3.0 0.00 0.00 0.00 61 1020.5
20260903122306 83 28 1.0 3.0 0.00 0.00 0.00 63 1021.1
20260903121804 82 321 2.0 3.0 0.00 0.00 0.00 64 1021.1
20260903121545 61 0 0.0 2.0 0.00 0.00 0.00 100 1021.8
20260903121307 81 178 1.0 3.0 0.00 0.00 0.00 62 1021.1
20260903120805 81 269 1.0 4.0 0.00 0.00 0.00 62 1021.3
20260903120306 81 223 1.0 4.0 0.00 0.00 0.00 64 1021.3
20260903120304 81 244 1.0 3.0 0.00 0.00 0.00 64 1020.6
20260903120049 61 248 1.0 3.0 0.00 0.00 0.00 100 1021.9
20260903115804 80 295 1.0 3.0 0.00 0.00 0.00 66 1020.7
20260903115757 80 89 2.0 3.0 0.00 0.00 0.00 66 1021.3
20260903115305 80 276 2.0 3.0 0.00 0.00 0.00 66 1020.7
20260903115025 80 45 1.0 3.0 0.00 0.00 0.00 68 1021.3
20260903114804 79 277 1.0 3.0 0.00 0.00 0.00 67 1020.7
20260903114548 61 338 1.0 3.0 0.00 0.00 0.00 100 1022.0
20260903114307 79 337 1.0 3.0 0.00 0.00 0.00 68 1021.5
20260903114304 79 245 1.0 3.0 0.00 0.00 0.00 68 1020.7
20260903113803 78 337 1.0 3.0 0.00 0.00 0.00 69 1020.8
20260903113801 78 310 2.0 3.0 0.00 0.00 0.00 69 1021.4
20260903113330 78 223 1.0 4.0 0.00 0.00 0.00 68 1021.4
20260903113303 78 273 1.0 2.0 0.00 0.00 0.00 67 1020.8
20260903113044 61 319 0.0 3.0 0.00 0.00 0.00 100 1022.0
20260903112804 78 234 2.0 3.0 0.00 0.00 0.00 69 1020.8
20260903112802 78 306 1.0 4.0 0.00 0.00 0.00 69 1021.5
20260903112305 78 261 1.0 2.0 0.00 0.00 0.00 71 1020.9
20260903111804 78 205 1.0 3.0 0.00 0.00 0.00 72 1020.9
20260903111802 78 197 1.0 3.0 0.00 0.00 0.00 72 1021.6
20260903111620 61 313 1.0 3.0 0.00 0.00 0.00 100 1022.2
20260903111310 77 89 1.0 2.0 0.00 0.00 0.00 74 1021.6
20260903111305 77 195 1.0 2.0 0.00 0.00 0.00 74 1020.9
20260903110803 76 145 1.0 2.0 0.00 0.00 0.00 75 1021.7
20260903110530 75 28 1.0 2.0 0.00 0.00 0.00 75 1021.6
20260903110303 75 66 1.0 2.0 0.00 0.00 0.00 75 1021.1
20260903110051 61 153 1.0 2.0 0.00 0.00 0.00 100 1022.2
20260903105804 74 196 1.0 2.0 0.00 0.00 0.00 76 1021.0
20260903105306 74 236 1.0 2.0 0.00 0.00 0.00 78 1021.0
20260903104806 73 329 1.0 3.0 0.00 0.00 0.00 80 1021.0
20260903104801 73 1 1.0 3.0 0.00 0.00 0.00 80 1021.7
20260903104555 61 0 1.0 2.0 0.00 0.00 0.00 100 1022.3
20260903104305 72 59 1.0 3.0 0.00 0.00 0.00 81 1021.7
20260903103805 72 13 1.0 2.0 0.00 0.00 0.00 81 1021.1
20260903103802 72 320 0.0 2.0 0.00 0.00 0.00 81 1021.7
20260903103525 71 286 1.0 2.0 0.00 0.00 0.00 83 1021.8
20260903103303 71 250 1.0 3.0 0.00 0.00 0.00 83 1021.2
20260903103044 61 9 1.0 2.0 0.00 0.00 0.00 100 1022.5
20260903102803 70 339 1.0 2.0 0.00 0.00 0.00 84 1021.2
20260903102306 70 28 1.0 2.0 0.00 0.00 0.00 87 1022.0
20260903101804 69 228 1.0 2.0 0.00 0.00 0.00 85 1021.3
20260903101801 69 306 1.0 2.0 0.00 0.00 0.00 85 1022.0
20260903101546 61 137 1.0 2.0 0.00 0.00 0.00 100 1022.7
20260903101306 69 51 1.0 2.0 0.00 0.00 0.00 88 1022.0
20260903101304 68 166 1.0 2.0 0.00 0.00 0.00 88 1021.4
20260903100803 68 316 1.0 2.0 0.00 0.00 0.00 92 1021.4
20260903100801 68 89 1.0 2.0 0.00 0.00 0.00 92 1022.0
20260903100304 67 178 1.0 2.0 0.00 0.00 0.00 93 1022.1
20260903100049 61 178 0.0 2.0 0.00 0.00 0.00 100 1022.8
20260903100030 66 223 1.0 2.0 0.00 0.00 0.00 94 1022.1
20260903095804 66 206 1.0 2.0 0.00 0.00 0.00 94 1021.5
20260903095306 66 45 0.0 2.0 0.00 0.00 0.00 94 1022.0
20260903094804 65 155 1.0 2.0 0.00 0.00 0.00 95 1021.5
20260903094800 65 152 1.0 2.0 0.00 0.00 0.00 95 1022.1
20260903094547 61 0 1.0 2.0 0.00 0.00 0.00 100 1022.8
20260903094535 65 20 1.0 2.0 0.00 0.00 0.00 95 1022.0
20260903094303 65 26 0.0 2.0 0.00 0.00 0.00 95 1021.5
20260903093804 65 214 1.0 2.0 0.00 0.00 0.00 96 1021.5
20260903093800 65 206 1.0 2.0 0.00 0.00 0.00 96 1022.0
20260903093304 65 45 0.0 1.0 0.00 0.00 0.00 96 1022.0
20260903093047 61 178 1.0 1.0 0.00 0.00 0.00 100 1022.7
20260903092805 64 154 1.0 2.0 0.00 0.00 0.00 96 1021.6
20260903092800 64 223 1.0 1.0 0.00 0.00 0.00 96 1022.0
20260903092527 64 1 0.0 2.0 0.00 0.00 0.00 96 1022.1
20260903092306 64 168 0.0 1.0 0.00 0.00 0.00 96 1021.6
20260903091808 63 228 1.0 2.0 0.00 0.00 0.00 96 1021.6
20260903091800 63 178 1.0 2.0 0.00 0.00 0.00 96 1022.2
20260903091543 61 9 1.0 2.0 0.00 0.00 0.00 100 1022.9
20260903091535 63 269 1.0 2.0 0.00 0.00 0.00 96 1022.1
20260903091304 63 245 1.0 2.0 0.00 0.00 0.00 96 1021.6
20260903090803 63 37 1.0 2.0 0.00 0.00 0.00 96 1021.7
20260903090759 63 1 1.0 2.0 0.00 0.00 0.00 96 1022.2
20260903090304 62 2 1.0 3.0 0.00 0.00 0.00 96 1021.7
20260903090050 61 0 0.0 2.0 0.00 0.00 0.00 100 1022.8
20260903090020 62 35 1.0 2.0 0.00 0.00 0.00 96 1022.1
20260903085803 62 25 1.0 2.0 0.00 0.00 0.00 96 1021.6
20260903085314 62 197 1.0 2.0 0.00 0.00 0.00 96 1022.2
20260903085306 62 70 1.0 2.0 0.00 0.00 0.00 96 1021.7
20260903084804 61 34 1.0 2.0 0.00 0.00 0.00 96 1021.5
20260903084801 61 1 1.0 2.0 0.00 0.00 0.00 96 1022.0
20260903084543 61 19 1.0 2.0 0.00 0.00 0.00 100 1022.7
20260903084303 61 219 1.0 2.0 0.00 0.00 0.00 96 1021.4
20260903083804 61 318 1.0 2.0 0.00 0.00 0.00 96 1021.5
20260903083800 61 223 1.0 2.0 0.00 0.00 0.00 96 1022.1
20260903083304 61 269 1.0 2.0 0.00 0.00 0.00 96 1022.1
20260903083044 61 221 1.0 1.0 0.00 0.00 0.00 100 1022.8
20260903082804 61 235 1.0 2.0 0.00 0.00 0.00 96 1021.7
20260903082759 60 269 1.0 2.0 0.00 0.00 0.00 96 1022.1
20260903082306 60 206 1.0 2.0 0.00 0.00 0.00 96 1022.1
20260903081759 60 314 1.0 2.0 0.00 0.00 0.00 96 1022.2
20260903081550 61 19 0.0 1.0 0.00 0.00 0.00 100 1022.9
20260903081304 60 356 1.0 2.0 0.00 0.00 0.00 96 1021.7
20260903081302 60 1 1.0 2.0 0.00 0.00 0.00 96 1022.2
20260903080804 60 219 1.0 2.0 0.00 0.00 0.00 96 1021.6
20260903080759 60 190 1.0 2.0 0.00 0.00 0.00 96 1022.0
20260903080528 60 178 1.0 1.0 0.00 0.00 0.00 96 1022.1
20260903080304 60 205 1.0 2.0 0.00 0.00 0.00 96 1021.6
20260903080045 61 0 1.0 2.0 0.00 0.00 0.00 100 1022.9
20260903075758 59 89 0.0 1.0 0.00 0.00 0.00 96 1022.1
20260903075306 59 336 0.0 1.0 0.00 0.00 0.00 96 1021.7
20260903075302 59 223 1.0 1.0 0.00 0.00 0.00 96 1022.1
20260903074804 59 204 0.0 1.0 0.00 0.00 0.00 96 1021.6
20260903074758 59 206 1.0 1.0 0.00 0.00 0.00 96 1022.0
20260903074543 61 205 1.0 1.0 0.00 0.00 0.00 100 1022.8
20260903074529 59 223 1.0 1.0 0.00 0.00 0.00 96 1022.0
20260903074304 59 173 1.0 1.0 0.00 0.00 0.00 96 1021.6
20260903074022 59 124 1.0 1.0 0.00 0.00 0.00 96 1022.1
20260903073804 59 152 1.0 1.0 0.00 0.00 0.00 96 1021.5
20260903073304 58 185 1.0 2.0 0.00 0.00 0.00 96 1021.5
20260903073301 58 28 1.0 2.0 0.00 0.00 0.00 96 1021.9
20260903073047 61 0 0.0 1.0 0.00 0.00 0.00 100 1022.5
20260903072803 58 125 1.0 2.0 0.00 0.00 0.00 96 1021.5
20260903072758 58 135 1.0 2.0 0.00 0.00 0.00 96 1021.9
20260903072306 58 228 1.0 2.0 0.00 0.00 0.00 95 1021.4
20260903072300 58 206 1.0 2.0 0.00 0.00 0.00 95 1021.9
20260903072019 58 45 1.0 2.0 0.00 0.00 0.00 96 1021.8
20260903071803 58 162 1.0 2.0 0.00 0.00 0.00 96 1021.3
20260903071544 61 0 0.0 1.0 0.00 0.00 0.00 100 1022.3
20260903071303 58 177 0.0 1.0 0.00 0.00 0.00 96 1021.3
20260903070757 58 206 0.0 2.0 0.00 0.00 0.00 96 1021.7
20260903070523 58 223 0.0 2.0 0.00 0.00 0.00 95 1021.7
20260903070304 58 213 0.0 2.0 0.00 0.00 0.00 95 1021.2
20260903070051 61 232 0.0 1.0 0.00 0.00 0.00 100 1022.3
20260903070018 58 178 1.0 2.0 0.00 0.00 0.00 95 1021.6
20260903065803 58 157 0.0 2.0 0.00 0.00 0.00 95 1021.3
20260903065306 58 169 1.0 2.0 0.00 0.00 0.00 95 1021.3
20260903065017 58 206 0.0 2.0 0.00 0.00 0.00 95 1021.7
20260903064540 61 196 0.0 1.0 0.00 0.00 0.00 100 1022.2
20260903064304 58 207 1.0 2.0 0.00 0.00 0.00 95 1021.2
20260903064301 58 269 1.0 1.0 0.00 0.00 0.00 95 1021.6
20260903063804 58 36 0.0 2.0 0.00 0.00 0.00 95 1021.2
20260903063757 58 56 1.0 2.0 0.00 0.00 0.00 95 1021.6
20260903063304 58 174 1.0 2.0 0.00 0.00 0.00 95 1021.0
20260903063300 58 135 1.0 2.0 0.00 0.00 0.00 95 1021.4
20260903063042 61 0 1.0 1.0 0.00 0.00 0.00 100 1022.1
20260903062756 58 178 1.0 2.0 0.00 0.00 0.00 95 1021.5
20260903062541 58 171 1.0 2.0 0.00 0.00 0.00 95 1021.6
20260903062330 58 171 1.0 2.0 0.00 0.00 0.00 95 1021.6
20260903062306 58 182 0.0 1.0 0.00 0.00 0.00 95 1021.2
20260903062051 58 178 0.0 2.0 0.00 0.00 0.00 95 1021.6
20260903061809 58 178 0.0 2.0 0.00 0.00 0.00 95 1021.6
20260903061804 58 173 0.0 2.0 0.00 0.00 0.00 95 1021.2
20260903061557 61 153 1.0 1.0 0.00 0.00 0.00 100 1022.2
20260903061305 58 187 0.0 1.0 0.00 0.00 0.00 95 1021.2
20260903061301 58 197 0.0 1.0 0.00 0.00 0.00 95 1021.6
20260903060803 59 213 0.0 1.0 0.00 0.00 0.00 95 1021.3
20260903060756 59 331 0.0 1.0 0.00 0.00 0.00 95 1021.6
20260903060304 59 205 0.0 1.0 0.00 0.00 0.00 95 1021.3
20260903060258 59 45 0.0 1.0 0.00 0.00 0.00 95 1021.7
20260903060046 61 0 0.0 1.0 0.00 0.00 0.00 100 1022.3
20260903055755 59 223 0.0 1.0 0.00 0.00 0.00 95 1021.8
20260903055306 59 75 0.0 1.0 0.00 0.00 0.00 95 1021.3
20260903055259 59 135 0.0 1.0 0.00 0.00 0.00 95 1021.6
20260903054803 59 191 0.0 1.0 0.00 0.00 0.00 95 1021.2
20260903054756 59 269 0.0 1.0 0.00 0.00 0.00 95 1021.6
20260903054541 61 0 0.0 1.0 0.00 0.00 0.00 100 1022.1